[[{"header":{"parameterUnit":"m.s-1","parameterCategory":1,"la1":30.2991,"la2":30.254,"lo1":-89.0895,"lo2":-89.0444,"dy":0.0017,"dx":0.0017,"nx":28,"ny":28,"refTime":"2023-11-04T09:00:00:Z","depth":0,"parameterNumber":2,"parameterNumberName":"U-component_of_WINDS"},"data":[0,0,0,0,0,0,0,0,0,0,0,0,0,0,0,0,0,0,0,0,0,0,0,0,0,0,0,0,0,0,0,0,0,0,0,0,0,0,0,0,0,0,0,0,0,0,0,0,0,0,0,0,0,0,0,0,0,0,-0.9893,-0.9893,0,-0.9836,-0.9835,-0.9835,-0.9744,-0.9742,-0.9741,-0.9739,-0.9681,-0.9681,-0.9681,0,0,0,0,0,0,0,0,0,0,0,0,0,-0.9926,-0.9926,-0.9894,-0.9893,-0.9892,-0.9836,-0.9835,-0.9835,-0.9744,-0.9742,-0.974,-0.9738,-0.9681,-0.9681,-0.9681,0,0,0,0,0,0,0,0,0,0,0,0,0,-0.9895,-0.9926,-0.9894,-0.984,-0.9835,-0.9836,-0.9835,-0.9834,-0.9745,-0.9742,-0.974,-0.9738,-0.9681,-0.9681,-0.9681,-0.973,0,0,-0.9681,-0.9681,0,0,0,0,0,0,0,0,-0.9897,-0.9894,-0.9849,-0.9844,-0.9838,-0.9795,-0.9826,-0.98,-0.9745,-0.9779,-0.9739,-0.9736,-0.9721,-0.9718,-0.9712,-0.9728,-0.9725,-0.9681,-0.9681,-0.9681,-0.9681,0,0,0,0,0,0,0,-0.9899,-0.9896,-0.9871,-0.9848,-0.9842,-0.982,-0.9812,-0.982,-0.9765,-0.9776,-0.9769,-0.9764,-0.9718,-0.9713,-0.971,-0.9724,-0.9681,-0.9681,-0.9681,-0.9681,-0.9779,-0.9781,0,0,0,0,0,0,-0.9909,-0.9898,-0.9873,-0.9869,-0.9862,-0.9821,-0.9813,-0.9811,-0.9764,-0.9755,-0.9766,-0.976,-0.9714,-0.971,-0.9708,-0.9764,-0.9681,-0.9681,-0.9681,-0.9776,-0.9779,-0.9782,0,0,0,0,0,0,-0.991,-0.9908,-0.9875,-0.9882,-0.9876,-0.9823,-0.9822,-0.9811,-0.9806,-0.9757,-0.9746,-0.9771,-0.9712,-0.9708,-0.9726,-0.9761,-0.9681,-0.9681,-0.9773,-0.9777,-0.9781,-0.9876,0,0,0,0,0,0,-0.9911,-0.9909,-0.9926,-0.9883,-0.9876,-0.9894,-0.9824,-0.9812,-0.9806,-0.9798,-0.9759,-0.975,-0.9709,-0.9726,-0.9726,-0.9759,-0.9681,-0.977,-0.9775,-0.978,-0.987,-0.9883,-0.9894,0,0,0,0,0,-0.9913,-0.9955,-0.9928,-0.9925,-0.9897,-0.9896,-0.9892,-0.9845,-0.9809,-0.9827,-0.9796,-0.9751,-0.9756,-0.9729,-0.9728,-0.9762,-0.9768,-0.9774,-0.9779,-0.9864,-0.988,-0.9894,0,0,0,0,0,0,-1.0005,-0.9949,-0.9918,-0.9947,-0.9927,-0.9881,-0.9902,-0.9863,-0.9853,-0.9845,-0.9787,-0.9779,-0.9805,-0.9784,-0.9755,-0.9807,-0.9755,-0.9761,-0.982,-0.9835,-0.9847,-0.9853,-0.9681,0,0,0,0,0,-1.0028,-1.0032,-0.9982,-1.0013,-1.0005,-0.9955,-0.9953,-0.9918,-0.9895,-0.9886,-0.9856,-0.9836,-0.9833,-0.9832,-0.9827,-0.9865,-0.9857,-0.9888,-0.99,-0.991,-0.9917,-0.9938,-0.9952,-0.9802,-0.9801,-0.9801,0,0,-1.0077,-1.0047,-1.0053,-1.0031,-1.0011,-1.0017,-0.9949,-0.9957,-0.9961,-0.9888,-0.9903,-0.988,-0.9854,-0.9883,-0.9894,-0.9867,-0.9956,-0.9918,-0.9927,-0.9927,-0.9945,-0.996,-0.9972,-0.9805,-0.9805,-0.9804,0,0,-1.017,-1.0147,-1.0171,-1.0152,-1.0124,-1.009,-1.0096,-1.0056,-1.0038,-1.0052,-0.9998,-1.0001,-0.9997,-0.9981,-0.9973,-1.006,-1.0019,-1.0059,-1.0124,-1.0145,-1.0157,-1.0167,-1.0201,-1.0213,-1.0066,-1.0066,-1.0066,0,-1.0235,-1.0241,-1.0188,-1.0201,-1.0193,-1.0126,-1.0151,-1.0136,-1.0107,-1.0104,-1.0073,-1.0068,-1.0045,-1.007,-1.0092,-1.0086,-1.0092,-1.0065,-1.0159,-1.0169,-1.0178,-1.0209,-1.0222,-1.0071,-1.007,-1.007,-1.0069,0,-1.0323,-1.0328,-1.0351,-1.0325,-1.032,-1.0339,-1.0289,-1.0291,-1.0256,-1.0226,-1.0243,-1.0213,-1.0201,-1.0204,-1.017,-1.0225,-1.0209,-1.017,-1.0117,-1.0199,-1.0227,-1.0238,-1.0079,-1.0077,-1.0075,-1.0074,0,0,-1.0474,-1.0418,-1.0428,-1.0416,-1.0379,-1.0382,-1.0398,-1.0386,-1.039,-1.0371,-1.0384,-1.0383,-1.0346,-1.0336,-1.03,-1.0318,-1.0392,-1.0276,-1.0275,-1.0301,-1.0453,-1.0485,-1.05,-1.0363,-1.0365,-1.0367,-1.0456,0,-1.0561,-1.0585,-1.0538,-1.0574,-1.0579,-1.0515,-1.0529,-1.0508,-1.0481,-1.0481,-1.045,-1.0451,-1.0402,-1.0396,-1.0411,-1.038,-1.0422,-1.0372,-1.0377,-1.0378,-1.0388,-1.0514,-1.0547,-1.0633,-1.0466,-1.0468,-1.047,0,-1.0667,-1.0655,-1.0691,-1.0653,-1.0653,-1.0667,-1.0653,-1.0653,-1.0629,-1.0608,-1.0597,-1.0554,-1.0568,-1.0515,-1.0534,-1.0501,-1.05,-1.0485,-1.0487,-1.0488,-1.0431,-1.0521,-1.0659,-1.0673,-1.0486,-1.0485,-1.0484,0,-1.0776,-1.0768,-1.079,-1.0781,-1.0736,-1.0748,-1.073,-1.0703,-1.0699,-1.0687,-1.0684,-1.0674,-1.0669,-1.0662,-1.0618,-1.0583,-1.0643,-1.0585,-1.0627,-1.0628,-1.0644,-1.0645,-1.0787,-1.064,-1.0639,-1.0639,-1.0639,0,-1.088,-1.0906,-1.0838,-1.0852,-1.0879,-1.0824,-1.0852,-1.0828,-1.0804,-1.0812,-1.0756,-1.0765,-1.0704,-1.0707,-1.0672,-1.0695,-1.0692,-1.0676,-1.0667,-1.0683,-1.0685,-1.0683,-1.0677,-1.0642,-1.0642,-1.0641,-1.0641,0,-1.1008,-1.0964,-1.0983,-1.0939,-1.0929,-1.0951,-1.0914,-1.0925,-1.0893,-1.0904,-1.0904,-1.0855,-1.0855,-1.081,-1.08,-1.0777,-1.0815,-1.0794,-1.0824,-1.0818,-1.0863,-1.0861,-1.1011,-1.1029,-1.0868,-1.087,-1.0871,0,-1.1079,-1.1097,-1.1055,-1.1056,-1.1041,-1.1044,-1.104,-1.0987,-1.0985,-1.0959,-1.0974,-1.0969,-1.0963,-1.0966,-1.093,-1.0923,-1.0903,-1.0956,-1.0902,-1.0917,-1.0907,-1.0908,-1.091,-1.0969,-1.0971,-1.0972,-1.0974,0,-1.121,-1.1187,-1.1183,-1.1173,-1.1169,-1.1158,-1.1144,-1.1148,-1.109,-1.1091,-1.109,-1.1086,-1.1076,-1.1073,-1.106,-1.1041,-1.0999,-1.0991,-1.1001,-1.1018,-1.1036,-1.1029,-1.0858,-1.0988,-1.0987,-1.0986,-1.0985,-1.0984,-1.1312,-1.1326,-1.1299,-1.1298,-1.1281,-1.1269,-1.1277,-1.1247,-1.1246,-1.1234,-1.1202,-1.1208,-1.1183,-1.116,-1.1146,-1.115,-1.1124,-1.1137,-1.1141,-1.1146,-1.1156,-1.1033,-1.1147,-1.1146,-1.1146,-1.1146,-1.1145,0,-1.1443,-1.1422,-1.1421,-1.1402,-1.1401,-1.136,-1.1341,-1.1344,-1.1349,-1.133,-1.1325,-1.1325,-1.1322,-1.1286,-1.1278,-1.1289,-1.1269,-1.1289,-1.1289,-1.1286,-1.1178,-1.1172,-1.1305,-1.1305,-1.1305,-1.1305,-1.1305,-1.1305,-1.151,-1.1532,-1.1506,-1.152,-1.1499,-1.1503,-1.1497,-1.1486,-1.147,-1.1473,-1.147,-1.1446,-1.142,-1.1411,-1.1407,-1.1396,-1.1397,-1.1424,-1.1407,-1.1308,-1.1293,-1.1278,-1.1272,-1.1424,-1.1424,-1.1515,-1.1515,-1.1516]},{"header":{"parameterUnit":"m.s-1","parameterCategory":1,"la1":30.2991,"la2":30.254,"lo1":-89.0895,"lo2":-89.0444,"dy":0.0017,"dx":0.0017,"nx":28,"ny":28,"refTime":"2023-11-04T09:00:00:Z","depth":0,"parameterNumber":3,"parameterNumberName":"V-component_of_WINDS"},"data":[0,0,0,0,0,0,0,0,0,0,0,0,0,0,0,0,0,0,0,0,0,0,0,0,0,0,0,0,0,0,0,0,0,0,0,0,0,0,0,0,0,0,0,0,0,0,0,0,0,0,0,0,0,0,0,0,0,0,0.7343,0.7343,0,0.7263,0.7262,0.7261,0.7239,0.724,0.724,0.7241,0.7154,0.7151,0.7148,0,0,0,0,0,0,0,0,0,0,0,0,0,0.7473,0.7471,0.7344,0.7343,0.7342,0.7263,0.7262,0.7261,0.7239,0.724,0.7241,0.7241,0.7155,0.7151,0.7148,0,0,0,0,0,0,0,0,0,0,0,0,0,0.7407,0.747,0.7344,0.7321,0.7319,0.7264,0.7262,0.7261,0.7239,0.724,0.7241,0.7241,0.7156,0.7152,0.7148,0.7107,0,0,0.7135,0.7133,0,0,0,0,0,0,0,0,0.7411,0.7402,0.7326,0.7323,0.732,0.7262,0.7276,0.7209,0.7239,0.7269,0.7241,0.7242,0.7189,0.7182,0.7165,0.7103,0.71,0.7134,0.7132,0.713,0.7129,0,0,0,0,0,0,0,0.7416,0.7406,0.7312,0.7325,0.7321,0.7314,0.7305,0.7263,0.7226,0.7267,0.7265,0.7256,0.7187,0.7169,0.7163,0.7098,0.7135,0.7131,0.7128,0.7127,0.6998,0.6997,0,0,0,0,0,0,0.7425,0.741,0.7314,0.7309,0.7368,0.7311,0.7301,0.728,0.7226,0.7219,0.7255,0.7255,0.7176,0.7168,0.716,0.7108,0.713,0.7126,0.7124,0.6999,0.6998,0.6997,0,0,0,0,0,0,0.7428,0.7416,0.7317,0.7359,0.7346,0.7308,0.7284,0.7278,0.726,0.7218,0.7211,0.7244,0.7176,0.7166,0.7121,0.7105,0.7124,0.7121,0.7,0.6999,0.6998,0.7005,0,0,0,0,0,0,0.7431,0.7418,0.7403,0.7359,0.7344,0.7281,0.7283,0.7276,0.7253,0.7252,0.7205,0.7198,0.7176,0.7127,0.7117,0.7099,0.7117,0.7001,0.7,0.6998,0.7006,0.7004,0.7003,0,0,0,0,0,0.7436,0.7408,0.7402,0.7391,0.7325,0.728,0.7271,0.7248,0.7252,0.7236,0.7209,0.72,0.7109,0.7123,0.7111,0.7092,0.7002,0.7,0.6998,0.7007,0.7005,0.7003,0,0,0,0,0,0,0.7449,0.7401,0.7395,0.7352,0.732,0.7277,0.7256,0.7246,0.7212,0.7212,0.7183,0.7172,0.7129,0.7106,0.7122,0.705,0.7055,0.7051,0.7066,0.7063,0.7062,0.7067,0.7114,0,0,0,0,0,0.7447,0.7416,0.7376,0.7341,0.7326,0.7294,0.7273,0.7258,0.7224,0.721,0.718,0.7145,0.7109,0.7085,0.705,0.7004,0.6992,0.6985,0.6983,0.6982,0.6977,0.695,0.6946,0.699,0.699,0.699,0,0,0.7442,0.7412,0.7394,0.7343,0.7317,0.7284,0.7283,0.7248,0.7222,0.7204,0.716,0.7137,0.7096,0.705,0.7028,0.703,0.6963,0.6979,0.6979,0.6975,0.6947,0.6943,0.6939,0.6989,0.6989,0.6989,0,0,0.7416,0.7391,0.7359,0.7333,0.7295,0.7273,0.7266,0.7224,0.7208,0.7164,0.7149,0.7118,0.7056,0.7027,0.7005,0.6969,0.6958,0.6958,0.6948,0.6921,0.6918,0.6914,0.6899,0.6894,0.6954,0.6954,0.6954,0,0.7414,0.7365,0.7343,0.7309,0.7286,0.7271,0.7237,0.7213,0.7163,0.7147,0.715,0.7072,0.7044,0.699,0.6982,0.6965,0.6953,0.6962,0.692,0.6917,0.6913,0.6898,0.6893,0.6954,0.6954,0.6954,0.6954,0,0.7363,0.733,0.7308,0.7263,0.7238,0.7204,0.7176,0.7153,0.7141,0.7119,0.7073,0.7039,0.6996,0.6982,0.6969,0.6926,0.6928,0.6926,0.6931,0.6909,0.6895,0.6889,0.6955,0.6954,0.6954,0.6954,0,0,0.7341,0.7285,0.7277,0.7256,0.7212,0.7185,0.715,0.711,0.7089,0.7057,0.7025,0.6974,0.6972,0.6946,0.693,0.6907,0.6878,0.6907,0.6906,0.6901,0.6827,0.6827,0.6821,0.6872,0.6871,0.687,0.6829,0,0.7307,0.7246,0.7226,0.7174,0.7141,0.7126,0.7096,0.7065,0.7044,0.7012,0.6988,0.6951,0.6953,0.6937,0.6914,0.6887,0.6862,0.6889,0.684,0.6838,0.6848,0.6813,0.6813,0.6777,0.6824,0.6823,0.6822,0,0.7259,0.7227,0.7172,0.7133,0.7118,0.7091,0.7052,0.7023,0.6987,0.6973,0.6945,0.6931,0.6892,0.6901,0.6846,0.6865,0.6843,0.6827,0.6825,0.6817,0.6827,0.6802,0.6765,0.6758,0.6813,0.6814,0.6815,0,0.7246,0.7189,0.7148,0.7131,0.7084,0.7065,0.7044,0.7009,0.6986,0.6951,0.6936,0.6897,0.6875,0.6844,0.6819,0.6828,0.6765,0.6772,0.675,0.6751,0.6735,0.6736,0.6691,0.6726,0.6726,0.6727,0.6727,0,0.7209,0.7175,0.7141,0.7116,0.7078,0.7055,0.7017,0.6995,0.6965,0.6933,0.6919,0.6889,0.6859,0.6826,0.6806,0.6762,0.6753,0.6739,0.6733,0.6738,0.674,0.6722,0.6723,0.6725,0.6725,0.6726,0.6726,0,0.7185,0.7162,0.7116,0.7077,0.7066,0.7039,0.7004,0.6978,0.6957,0.6918,0.6907,0.6874,0.6834,0.6806,0.6755,0.6741,0.6693,0.6689,0.6705,0.6702,0.6681,0.6682,0.6621,0.661,0.6655,0.6655,0.6654,0,0.7162,0.7136,0.7094,0.7073,0.7053,0.7019,0.6996,0.6972,0.6948,0.6906,0.6884,0.6844,0.681,0.6746,0.6715,0.6675,0.6669,0.665,0.6663,0.6668,0.6666,0.6666,0.6663,0.6647,0.6647,0.6647,0.6647,0,0.7122,0.7112,0.708,0.7043,0.7016,0.6985,0.6955,0.6938,0.6909,0.6882,0.6842,0.6816,0.6764,0.6723,0.668,0.6657,0.6645,0.6644,0.6636,0.6639,0.6649,0.6641,0.6697,0.6644,0.6644,0.6645,0.6645,0.6645,0.7097,0.7072,0.7039,0.7003,0.6978,0.695,0.6923,0.69,0.6866,0.6823,0.6811,0.6769,0.6733,0.6675,0.6651,0.6616,0.6617,0.6607,0.6604,0.6601,0.6599,0.6657,0.6609,0.6609,0.6609,0.6609,0.6609,0,0.7054,0.7032,0.7,0.6958,0.6929,0.6925,0.6891,0.6866,0.6829,0.6798,0.6765,0.6718,0.6679,0.6646,0.6605,0.6583,0.6576,0.6572,0.6572,0.6566,0.6602,0.6612,0.6578,0.6578,0.6578,0.6578,0.6578,0.6578,0.7028,0.6986,0.6972,0.6918,0.6896,0.6855,0.6836,0.6809,0.6784,0.6732,0.67,0.668,0.6647,0.6604,0.6566,0.6558,0.6542,0.6538,0.6528,0.6561,0.6564,0.6567,0.6576,0.6536,0.6536,0.6495,0.6495,0.6494]}]]